Regional Weather Roundup
Issued by NWS Lake Charles, LA

Home | Current Version | Previous Version | Text Only | Print | Product List | Glossary On
Versions: 1 2 3 4 5 6 7 8 9 10 11 12 13 14 15 16 17 18 19 20 21 22 23 24 25 26 27 28 29 30 31 32 33 34 35 36 37 38 39 40 41 42 43 44 45 46 47 48 49 50
028
ASUS44 KLCH 182310
RWRLCH
REGIONAL WEATHER ROUNDUP
NATIONAL WEATHER SERVICE LAKE CHARLES LA
600 PM CDT FRI AUG 18 2017

Note: "fair" indicates few or no clouds below 12,000 feet with no
significant weather and/or obstructions to visibility.


ACROSS SOUTHEAST TEXAS

CITY           SKY/WX    TMP DP  RH WIND       PRES   REMARKS
BEAUMONT       MOSUNNY   87  77  72 S8        29.96F
BEAUMONT CITY  FAIR      92  73  53 MISG      29.97F HX 101
ORANGE         CLEAR     91  77  62 S6        29.98F HX 104
JASPER           N/A     94  72  48 SW3       29.99S HX 102
$$

ACROSS CENTRAL LOUISIANA

CITY           SKY/WX    TMP DP  RH WIND       PRES   REMARKS
LEESVILLE      SUNNY     93  72  50 SW7       29.96F HX 100
FULLERTON      FAIR      95  74  50 CALM      29.94F HX 105
ALEXANDRIA INT SUNNY     91  74  57 W3        29.96S HX 100
ESLER FIELD    MOSUNNY   93  77  59 NW3       29.97S HX 107
DERIDDER       FAIR      93  68  43 W5        29.99S
OAKDALE        CLEAR     93  73  51 CALM      29.97S HX 102
OPELOUSAS      FAIR      91  76  62 CALM      29.98S HX 102
$$

ACROSS SOUTHWEST AND SOUTH CENTRAL LOUISIANA

CITY           SKY/WX    TMP DP  RH WIND       PRES   REMARKS
SULPHUR        CLEAR     92  76  59 SW7       29.98S HX 105
LAKE CHARLES   SUNNY     91  77  63 S8        29.96F HX 104
CHENNAULT INT  MOSUNNY   90  79  70 SE5       29.97S HX 105
CAMERON PHI    CLEAR     88  77  70 SW7       29.97F HX 100
DEQUINCY       FAIR      92  73  52 CALM      29.97F HX 100
JENNINGS       FAIR      92  73  53 CALM      29.97S HX 101
LAFAYETTE      SUNNY     95  70  44 W5        29.97S HX 101
NEW IBERIA     PTSUNNY   92  73  53 N7        29.98S HX 100
ABBEVILLE      FAIR      91  81  70 SE7       29.98S HX 110
PATTERSON      CLOUDY    87  79  76 SW5       29.99S HX 101
SALT POINT       N/A     90  77  65 VRB6      29.97F HX 103
$$

SELECTED SITES ACROSS THE REGION

CITY           SKY/WX    TMP DP  RH WIND       PRES   REMARKS
HOUSTON BUSH   MOSUNNY   92  75  57 SE14      29.95F HX 103
HOUSTON HOBBY  MOSUNNY   95  76  53 SE9       29.94F HX 108
GALVESTON      SUNNY     89  78  70 S12       29.98F HX 103
COLLEGE STAT   SUNNY     97  66  36 VRB3      29.94F HX 100
CONROE         SUNNY     95  69  42 S7        29.95F HX 100
HUNTSVILLE     SUNNY     97  66  36 S7        29.96F HX 100
LUFKIN         SUNNY     96  71  44 CALM      29.96F HX 103
SHREVEPORT     MOSUNNY   92  74  55 SW7       29.96F HX 101
MONROE         MOSUNNY   93  73  52 W9        29.97R HX 102
NATCHEZ MS     SUNNY     92  77  61 VRB5      29.99S HX 105
BATON ROUGE    MOSUNNY   92  72  51 N6        29.97S
N.O. INTL ARPT MOSUNNY   94  72  48 NW5       29.97F HX 102
SLIDELL        SUNNY     91  73  55 SW6       29.97R
$$

MARINE REPORTS

STATION/POSITION TIME  SKY/WX   TEMP    WIND        PRES    VSBY
                                AIR SEA DIR/SP/G
                 (UTC)          (F)     (DEG/KT/KT) (MB)    (MI)
BUOY 30 S HIGH I NOT AVBL
SEA RIM ST PARK  2200            88     200/  9/ 11 1015.8F
PORT ARTHUR      2248                   250/  8/ 11 1015.2F
SABINE PASS N    2248                   180/  8/ 10 1016.7F
TEXAS POINT      NOT AVBL
CALCASIEU PASS   2248               89  240/  8/ 10 1014.5F
LK CHARLES BEACH 2236            93 86              1015.2F
MARSH ISLAND     2200            89                   N/A
FRESH WATER LOCK 2236            88 90  220/  7/ 10 1015.6S
AMERADA PASS     2236            89 91   CALM  /  5 1015.7S
$$




USA.gov is the U.S. government's official web portal to all federal, state and local government web resources and services.